Location: Berg
(48.4333°N, 13.9167°E)
Time: 08:46:07
(UTC+00:00)

Cosmos 1891 Rocket - Pass Details

Date: 18 September 2020
Orbit: 934 x 1018 km, 82.9° (Epoch: 24 October)

Event Time Altitude Azimuth Distance (km) Brightness Sun altitude
Rises 18:25:06 0° 180° (S) 3,645 7.3 -13.1°
Reaches altitude 10° 18:27:37 10° 179° (S) 2,691 6.6 -13.5°
Maximum altitude 18:33:43 73° 96° (E) 992 4.4 -14.4°
Drops below altitude 10° 18:39:47 10° 12° (NNE) 2,665 6.9 -15.4°
Sets 18:42:15 0° 11° (N) 3,608 7.6 -15.8°
